(253928) = 2004 CV75 = 2000 CT10

Discovered at Kitt Peak on 2004-02-11 by Spacewatch.

Orbit

Orbit type: Main Belt

Note: WebGL enabled browser required.

epoch2024-03-31.0
epoch JD2460400.5
perihelion date2023-09-18.11737
perihelion JD2460205.61737
argument of perihelion (°)341.18667
ascending node (°)157.15078
inclination (°)3.66976
eccentricity0.1342954
perihelion distance (AU)2.1523202
Tisserand w.r.t. Jupiter3.5
ΔV w.r.t. Earth (km/sec)9.2
semimajor axis (AU)2.4862063
mean anomaly (°)48.99719
mean daily motion (°/day)0.25141900
aphelion distance (AU)2.820
period (years)3.92
P-vector [x]-0.74732955
P-vector [y]0.61754050
P-vector [z]0.24523923
Q-vector [x]-0.66398858
Q-vector [y]-0.70788461
Q-vector [z]-0.24087040
absolute magnitude17.12
phase slope0.15
uncertainty0
referenceMPEC 2024-F07
observations used447
oppositions16
arc length (days)8809
first opposition used2000
last opposition used2024
residual rms (arc-secs)0.77
perturbers coarse indicatorM-v
perturbers precise indicator003Ek
first observation date used2000-02-02.0
last observation date used2024-03-16.0
computer nameMPCLINUX
JD of orbit computation2456937.320339
perihelion JD uncertainty (days)8.5259E-05
argument of perihelion uncertainty (°)5.3014E-05
ascending node uncertainty (°)4.7659E-05
inclination uncertainty (°)6.8263E-06
eccentricity uncertainty 6.3285E-08
perihelion distance uncertainty (AU)1.5517E-07
Minimum Orbit Intersection Distances (in AU)
for orbit epoch: 2460400.5, reference: E2024-GB3
Mercury1.80523
Venus1.43668
Earth1.16649
Mars0.49829
Jupiter2.19972
Saturn6.70328
Uranus16.2413
Neptune27.1648

Observations

456 total observations over interval: 2000 02 02.25208 – 2024 03 16.566517
These data are available for download (format description).

Date (UT) J2000 RA J2000 Dec Magn Location Ref
2000 02 02.25208 08 08 10.44 +16 38 07.7 19.1   704 – Lincoln Laboratory ETS, New Mexico MPS 10322
2000 02 02.28099 08 08 08.83 +16 38 16.8 19.3   704 – Lincoln Laboratory ETS, New Mexico MPS 10322
2000 02 02.31007 08 08 07.15 +16 38 24.4 19.4   704 – Lincoln Laboratory ETS, New Mexico MPS 10322
2000 02 03.24498 08 07 17.26 +16 43 17.8 19.5   704 – Lincoln Laboratory ETS, New Mexico MPS 10322
2000 02 03.25963 08 07 16.43 +16 43 21.5 19.9   704 – Lincoln Laboratory ETS, New Mexico MPS 10322
2000 02 03.28892 08 07 14.86 +16 43 31.9 19.3   704 – Lincoln Laboratory ETS, New Mexico MPS 10322
2002 08 31.29121 00 18 08.34 +00 08 11.5 22.0 V 291 – LPL/Spacewatch II MPS 108504
2002 08 31.30171 00 18 07.90 +00 08 07.5 21.8 V 291 – LPL/Spacewatch II MPS 108504
2002 08 31.31195 00 18 07.54 +00 08 04.1 21.9 V 291 – LPL/Spacewatch II MPS 108504
2002 09 05.324150 00 14 50.586 -00 21 17.54 21.07 V 645 – Apache Point-Sloan Digital Sky Survey MPS 182462
2002 09 05.327622 00 14 50.428 -00 21 18.86 21.77   645 – Apache Point-Sloan Digital Sky Survey MPS 182462
2004 01 31.28601 09 23 30.14 +12 39 04.0 19.8 V 691 – Steward Observatory, Kitt Peak-Spacewatch MPS 100186
2004 01 31.31802 09 23 28.39 +12 39 16.2 19.8 V 691 – Steward Observatory, Kitt Peak-Spacewatch MPS 100186
2004 01 31.34725 09 23 26.78 +12 39 27.1 20.0 V 691 – Steward Observatory, Kitt Peak-Spacewatch MPS 100186
2004 02 11.27838 09 13 36.36 +13 50 00.2 19.7 V 703 – Catalina Sky Survey MPS 100186
2004 02 11.29040 09 13 35.74 +13 50 05.1 19.0 R 699 – Lowell Observatory-LONEOS MPS 100186
2004 02 11.29213 09 13 35.58 +13 50 04.8 19.9 V 703 – Catalina Sky Survey MPS 100186
2004 02 11.29922 09 13 35.23 +13 50 08.2 19.8 V 691 – Steward Observatory, Kitt Peak-Spacewatch MPS 100186
2004 02 11.30579 09 13 34.83 +13 50 11.5 19.8 V 703 – Catalina Sky Survey MPS 100186
2004 02 11.31064 09 13 34.51 +13 50 12.8   699 – Lowell Observatory-LONEOS MPS 100186
2004 02 11.31949 09 13 34.12 +13 50 16.6 19.7 V 703 – Catalina Sky Survey MPS 100186
2004 02 11.32712 09 13 33.65 +13 50 19.2 19.7 V 691 – Steward Observatory, Kitt Peak-Spacewatch MPS 100186
2004 02 11.33088 09 13 33.39 +13 50 20.1   699 – Lowell Observatory-LONEOS MPS 100186
2004 02 11.35109 09 13 32.33 +13 50 27.9   699 – Lowell Observatory-LONEOS MPS 100186
2004 02 11.35638 09 13 31.98 +13 50 30.6 19.7 V 691 – Steward Observatory, Kitt Peak-Spacewatch MPS 100186
2004 02 17.27037 09 08 22.71 +14 28 37.9 19.2   704 – Lincoln Laboratory ETS, New Mexico MPS 100186
2004 02 17.28212 09 08 22.05 +14 28 43.0 20.0   704 – Lincoln Laboratory ETS, New Mexico MPS 100186
2004 02 17.29397 09 08 21.49 +14 28 47.4 19.4   704 – Lincoln Laboratory ETS, New Mexico MPS 100186
2004 02 17.30581 09 08 20.83 +14 28 51.8 19.5   704 – Lincoln Laboratory ETS, New Mexico MPS 100186
2004 02 17.31772 09 08 20.21 +14 28 55.7 19.5   704 – Lincoln Laboratory ETS, New Mexico MPS 100186
2004 02 26.27172 09 01 36.03 +15 21 58.2 19.3   704 – Lincoln Laboratory ETS, New Mexico MPS 100186
2004 02 26.28320 09 01 35.54 +15 22 01.3 19.8   704 – Lincoln Laboratory ETS, New Mexico MPS 100186
2004 02 26.29442 09 01 35.22 +15 22 06.4 20.1   704 – Lincoln Laboratory ETS, New Mexico MPS 100186
2004 02 26.30558 09 01 34.63 +15 22 10.0 20.2   704 – Lincoln Laboratory ETS, New Mexico MPS 100186
2004 02 26.31675 09 01 34.12 +15 22 13.2 20.0   704 – Lincoln Laboratory ETS, New Mexico MPS 100186
2006 09 27.22218 00 35 04.80 +00 39 16.0 20.7 V 691 – Steward Observatory, Kitt Peak-Spacewatch MPS 181025
2006 09 27.23962 00 35 03.82 +00 39 08.7 20.7 V 691 – Steward Observatory, Kitt Peak-Spacewatch MPS 181025
2006 09 27.25700 00 35 02.94 +00 39 01.5 20.6 V 691 – Steward Observatory, Kitt Peak-Spacewatch MPS 181025
2007 12 31.41030 10 36 42.26 +06 35 13.9 20.6 V G96 – Mt. Lemmon Survey MPS 232609
2007 12 31.41796 10 36 42.44 +06 35 13.6 20.6 V G96 – Mt. Lemmon Survey MPS 232609
2007 12 31.42573 10 36 42.58 +06 35 12.9 20.4 V G96 – Mt. Lemmon Survey MPS 232609
2007 12 31.43355 10 36 42.76 +06 35 12.5 19.8 V G96 – Mt. Lemmon Survey MPS 232609
2008 02 03.33695 10 32 15.37 +07 53 00.7 19.4   704 – Lincoln Laboratory ETS, New Mexico MPS 236219
2008 02 03.34988 10 32 14.74 +07 53 05.6 19.9   704 – Lincoln Laboratory ETS, New Mexico MPS 236219
2008 02 03.36222 10 32 14.37 +07 53 10.0 19.6   704 – Lincoln Laboratory ETS, New Mexico MPS 236219
2008 02 03.37457 10 32 13.81 +07 53 14.3 19.7   704 – Lincoln Laboratory ETS, New Mexico MPS 236219
2008 02 03.38693 10 32 13.29 +07 53 17.2 19.8   704 – Lincoln Laboratory ETS, New Mexico MPS 236219
2008 02 04.04060 10 31 48.34 +07 57 05.7 19.5 V A50 – Andrushivka Astronomical Observatory MPS 237507
2008 02 04.04230 10 31 48.23 +07 57 06.5 19.4 V A50 – Andrushivka Astronomical Observatory MPS 237507
2008 02 04.04400 10 31 48.21 +07 57 07.8 19.3 V A50 – Andrushivka Astronomical Observatory MPS 237507
2008 02 04.05581 10 31 47.78 +07 57 11.9 19.1 V A50 – Andrushivka Astronomical Observatory MPS 237507
2008 02 08.23941 10 28 55.47 +08 23 16.8 19.7 V 691 – Steward Observatory, Kitt Peak-Spacewatch MPS 237507
2008 02 08.25700 10 28 54.67 +08 23 23.7 19.7 V 691 – Steward Observatory, Kitt Peak-Spacewatch MPS 237507
2008 02 08.27460 10 28 53.87 +08 23 30.8 19.7 V 691 – Steward Observatory, Kitt Peak-Spacewatch MPS 237507
2008 02 08.37302 10 28 49.22 +08 24 09.8 19.9 V 703 – Catalina Sky Survey MPS 237507
2008 02 08.38175 10 28 48.75 +08 24 13.5 19.5 V 703 – Catalina Sky Survey MPS 237507
2008 02 08.39049 10 28 48.39 +08 24 16.5 20.1 V 703 – Catalina Sky Survey MPS 237507
2008 02 08.39922 10 28 48.10 +08 24 19.4 19.3 V 703 – Catalina Sky Survey MPS 237507
2008 02 11.26612 10 26 37.87 +08 43 36.0 19.3   704 – Lincoln Laboratory ETS, New Mexico MPS 237507
2008 02 11.27668 10 26 37.42 +08 43 41.0 19.8   704 – Lincoln Laboratory ETS, New Mexico MPS 237507
2008 02 11.27835 10 26 37.33 +08 43 41.0 19.4   704 – Lincoln Laboratory ETS, New Mexico MPS 237507
2008 02 11.29061 10 26 36.73 +08 43 46.3 19.6   704 – Lincoln Laboratory ETS, New Mexico MPS 237507
2008 02 11.30133 10 26 36.16 +08 43 50.5 20.0   704 – Lincoln Laboratory ETS, New Mexico MPS 237507
2008 02 11.30300 10 26 36.06 +08 43 51.0 19.5   704 – Lincoln Laboratory ETS, New Mexico MPS 237507
2008 02 11.31360 10 26 35.51 +08 43 54.3 20.0   704 – Lincoln Laboratory ETS, New Mexico MPS 237507
2008 02 11.31527 10 26 35.45 +08 43 56.1 19.7   704 – Lincoln Laboratory ETS, New Mexico MPS 237507
2008 02 11.32601 10 26 34.95 +08 44 00.3 20.1   704 – Lincoln Laboratory ETS, New Mexico MPS 237507
2008 02 12.23248 10 25 52.23 +08 50 17.2 20.5 V 691 – Steward Observatory, Kitt Peak-Spacewatch MPS 237507
2008 02 12.25012 10 25 51.32 +08 50 25.2 19.5 V 691 – Steward Observatory, Kitt Peak-Spacewatch MPS 237507
2008 02 12.26520 10 25 50.58 +08 50 30.8 19.6 V 691 – Steward Observatory, Kitt Peak-Spacewatch MPS 237507
2008 02 12.61152 10 25 33.85 +08 53 03.9 19.3 V E12 – Siding Spring Survey MPS 237507
2008 02 12.61512 10 25 33.60 +08 53 05.9 19.7 V E12 – Siding Spring Survey MPS 237507
2008 02 12.61870 10 25 33.42 +08 53 06.8 19.3 V E12 – Siding Spring Survey MPS 237507
2008 02 12.62230 10 25 33.27 +08 53 07.6 19.7 V E12 – Siding Spring Survey MPS 237507
2008 02 24.37862 10 15 35.67 +10 18 52.7 19.3 V G96 – Mt. Lemmon Survey MPS 239400
2008 02 24.38526 10 15 35.31 +10 18 55.6 19.2 V G96 – Mt. Lemmon Survey MPS 239400
2008 02 24.39193 10 15 34.95 +10 18 58.4 19.2 V G96 – Mt. Lemmon Survey MPS 239400
2008 02 24.39858 10 15 34.59 +10 19 01.6 19.2 V G96 – Mt. Lemmon Survey MPS 239400
2008 02 26.33888 10 13 54.97 +10 33 17.2 19.1   704 – Lincoln Laboratory ETS, New Mexico MPS 239400
2008 02 26.35087 10 13 54.34 +10 33 22.4 19.3   704 – Lincoln Laboratory ETS, New Mexico MPS 239400
2008 02 26.36292 10 13 53.70 +10 33 27.3 19.2   704 – Lincoln Laboratory ETS, New Mexico MPS 239400
2008 02 26.37469 10 13 53.05 +10 33 32.2 19.6   704 – Lincoln Laboratory ETS, New Mexico MPS 239400
2008 02 26.38661 10 13 52.39 +10 33 37.2 19.4   704 – Lincoln Laboratory ETS, New Mexico MPS 239400
2008 03 07.23960 10 05 59.71 +11 41 53.8 19.6 V G96 – Mt. Lemmon Survey MPS 242076
2008 03 07.24631 10 05 59.42 +11 41 56.2 19.6 V G96 – Mt. Lemmon Survey MPS 242076
